timestamp,wind_dir_avg,wind_spd_avg,wind_spd_max_dir,wind_spd_gust,battery_voltage,lat,long
2021-11-04 00:04:00+00:00,218.0,3.55,219.0,3.9,12.57,47.59359,-54.27349
2021-11-04 00:14:01+00:00,230.0,3.07,226.0,3.38,12.57,47.59359,-54.27349
2021-11-04 00:24:01+00:00,231.0,3.0,234.0,3.37,12.57,47.59359,-54.27349
2021-11-04 00:34:01+00:00,212.0,2.67,203.0,2.98,12.57,47.59359,-54.27349
2021-11-04 00:44:01+00:00,227.0,2.48,228.0,2.84,12.57,47.59359,-54.27349
2021-11-04 00:54:01+00:00,189.0,2.04,185.0,2.5,12.57,47.59359,-54.27349
2021-11-04 01:04:01+00:00,185.0,1.46,189.0,1.83,12.57,47.59359,-54.27349
2021-11-04 01:14:00+00:00,199.0,1.6,196.0,1.83,12.57,47.59359,-54.27349
2021-11-04 01:24:00+00:00,186.0,2.05,192.0,2.36,12.57,47.59359,-54.27349
2021-11-04 01:34:00+00:00,253.0,1.94,251.0,2.2,12.57,47.59359,-54.27349
2021-11-04 01:44:00+00:00,247.0,1.27,262.0,1.75,12.57,47.59359,-54.27349
2021-11-04 01:54:00+00:00,261.0,1.46,254.0,1.73,12.57,47.59359,-54.27349
2021-11-04 02:04:00+00:00,264.0,0.8,260.0,0.99,12.57,47.59359,-54.27349
2021-11-04 02:14:00+00:00,41.0,1.26,34.0,1.51,12.57,47.59359,-54.27349
2021-11-04 02:24:00+00:00,36.0,1.26,37.0,1.56,12.57,47.59359,-54.27349
2021-11-04 02:34:00+00:00,64.0,0.77,57.0,0.97,12.57,47.59359,-54.27349
2021-11-04 02:44:00+00:00,92.0,0.79,82.0,0.98,12.57,47.59359,-54.27349
2021-11-04 02:54:00+00:00,174.0,3.05,172.0,3.4,12.57,47.59359,-54.27349
2021-11-04 03:04:00+00:00,171.0,3.17,179.0,3.45,12.57,47.59359,-54.27349
2021-11-04 03:14:01+00:00,174.0,3.46,170.0,3.9,12.57,47.59359,-54.27349
2021-11-04 03:24:01+00:00,180.0,2.37,180.0,2.61,12.57,47.59359,-54.27349
2021-11-04 03:34:01+00:00,164.0,2.39,164.0,2.63,12.57,47.59359,-54.27349
2021-11-04 03:44:01+00:00,142.0,2.82,144.0,3.15,12.57,47.59359,-54.27349
2021-11-04 03:54:01+00:00,149.0,2.81,155.0,3.23,12.57,47.59359,-54.27349
2021-11-04 04:04:01+00:00,166.0,2.2,169.0,2.38,12.57,47.59359,-54.27349
2021-11-04 04:14:00+00:00,180.0,1.54,180.0,1.73,12.49,47.59359,-54.27349
2021-11-04 04:24:00+00:00,167.0,3.3,168.0,3.7,12.49,47.59359,-54.27349
2021-11-04 04:34:00+00:00,169.0,3.7,174.0,3.91,12.49,47.59359,-54.27349
2021-11-04 04:44:00+00:00,163.0,4.31,165.0,4.59,12.49,47.59359,-54.27349
2021-11-04 04:54:00+00:00,170.0,4.19,172.0,4.56,12.49,47.59359,-54.27349
2021-11-04 05:04:00+00:00,165.0,1.89,161.0,2.29,12.49,47.59359,-54.27349
2021-11-04 05:14:00+00:00,188.0,2.1,192.0,2.35,12.49,47.59359,-54.27349
2021-11-04 05:24:00+00:00,176.0,2.61,172.0,2.92,12.49,47.59359,-54.27349
2021-11-04 05:34:00+00:00,171.0,3.72,176.0,4.45,12.49,47.59359,-54.27349
2021-11-04 05:44:00+00:00,180.0,4.32,177.0,4.84,12.49,47.59359,-54.27349
2021-11-04 05:54:00+00:00,187.0,3.69,191.0,4.19,12.49,47.59359,-54.27349
2021-11-04 06:04:00+00:00,160.0,4.06,158.0,4.47,12.49,47.59359,-54.27349
2021-11-04 06:14:00+00:00,171.0,2.89,177.0,3.23,12.49,47.59359,-54.27349
2021-11-04 06:24:00+00:00,166.0,3.72,165.0,4.18,12.49,47.59359,-54.27349
2021-11-04 06:34:00+00:00,154.0,3.07,155.0,3.4,12.49,47.59359,-54.27349
2021-11-04 06:44:00+00:00,135.0,3.35,141.0,3.67,12.49,47.59359,-54.27349
2021-11-04 06:54:00+00:00,143.0,2.79,141.0,3.1,12.49,47.59359,-54.27349
2021-11-04 07:04:00+00:00,139.0,3.07,144.0,3.55,12.49,47.59359,-54.27349
2021-11-04 07:14:01+00:00,145.0,2.55,149.0,2.9,12.49,47.59359,-54.27349
2021-11-04 07:24:01+00:00,171.0,3.15,168.0,3.75,12.49,47.59359,-54.27349
2021-11-04 07:34:01+00:00,175.0,3.01,177.0,3.39,12.49,47.59359,-54.27349
2021-11-04 07:44:01+00:00,152.0,2.63,150.0,3.03,12.49,47.59359,-54.27349
2021-11-04 07:54:01+00:00,145.0,2.39,143.0,2.69,12.49,47.59359,-54.27349
2021-11-04 08:04:01+00:00,144.0,3.35,144.0,3.99,12.49,47.59359,-54.27349
2021-11-04 08:14:00+00:00,164.0,4.41,157.0,5.03,12.41,47.59359,-54.27349
2021-11-04 08:24:00+00:00,162.0,3.9,159.0,4.64,12.41,47.59359,-54.27349
2021-11-04 08:34:00+00:00,160.0,5.16,155.0,5.67,12.41,47.59359,-54.27349
2021-11-04 08:44:00+00:00,153.0,5.3,149.0,6.13,12.41,47.59359,-54.27349
2021-11-04 08:54:00+00:00,154.0,4.78,163.0,5.53,12.41,47.59359,-54.27349
2021-11-04 09:04:00+00:00,162.0,6.62,168.0,7.63,12.41,47.59359,-54.27349
2021-11-04 09:14:00+00:00,161.0,6.04,159.0,7.2,12.41,47.59359,-54.27349
2021-11-04 09:24:00+00:00,157.0,8.16,160.0,9.27,12.41,47.59359,-54.27349
2021-11-04 09:34:00+00:00,159.0,8.43,156.0,9.35,12.41,47.59359,-54.27349
2021-11-04 09:44:00+00:00,158.0,9.89,153.0,11.55,12.41,47.59359,-54.27349
2021-11-04 09:54:00+00:00,159.0,9.25,161.0,10.2,12.41,47.59359,-54.27349
2021-11-04 10:04:00+00:00,160.0,7.36,156.0,8.5,12.41,47.59359,-54.27349
2021-11-04 10:14:00+00:00,164.0,6.97,164.0,7.74,12.41,47.59359,-54.27349
2021-11-04 10:24:00+00:00,160.0,7.72,163.0,8.72,12.41,47.59359,-54.27349
2021-11-04 10:34:00+00:00,165.0,9.16,164.0,10.19,12.41,47.59359,-54.27349
2021-11-04 10:44:00+00:00,164.0,8.67,166.0,10.16,12.41,47.59359,-54.27349
2021-11-04 10:54:00+00:00,161.0,8.66,157.0,9.47,12.41,47.59359,-54.27349
2021-11-04 11:04:00+00:00,157.0,8.04,158.0,9.3,12.41,47.59359,-54.27349
2021-11-04 11:14:00+00:00,150.0,8.03,151.0,8.72,12.41,47.59359,-54.27349
2021-11-04 11:24:00+00:00,171.0,6.8,173.0,8.51,12.41,47.59359,-54.27349
2021-11-04 11:34:00+00:00,165.0,8.88,162.0,11.27,12.41,47.59359,-54.27349
2021-11-04 11:44:00+00:00,167.0,12.36,161.0,14.59,12.41,47.59359,-54.27349
2021-11-04 11:54:00+00:00,164.0,13.49,159.0,16.12,12.41,47.59359,-54.27349
2021-11-04 12:04:00+00:00,173.0,12.59,170.0,14.01,12.41,47.59359,-54.27349
2021-11-04 13:14:01+00:00,228.0,12.71,218.0,17.22,13.76,47.59359,-54.27349
2021-11-04 13:24:01+00:00,233.0,15.48,241.0,19.89,13.76,47.59359,-54.27349
2021-11-04 13:34:01+00:00,246.0,15.12,243.0,17.7,13.76,47.59359,-54.27349
2021-11-04 13:44:01+00:00,238.0,15.46,243.0,19.15,13.76,47.59359,-54.27349
2021-11-04 13:54:01+00:00,228.0,15.12,225.0,17.35,13.76,47.59359,-54.27349
2021-11-04 14:04:01+00:00,232.0,13.94,243.0,20.85,13.76,47.59359,-54.27349
2021-11-04 14:14:01+00:00,236.0,15.86,248.0,19.86,13.53,47.59359,-54.27349
2021-11-04 14:24:01+00:00,230.0,15.2,227.0,17.24,13.53,47.59359,-54.27349
2021-11-04 14:34:01+00:00,240.0,15.73,252.0,21.14,13.53,47.59359,-54.27349
2021-11-04 14:44:01+00:00,243.0,16.79,250.0,19.24,13.53,47.59359,-54.27349
2021-11-04 14:54:01+00:00,245.0,13.72,246.0,16.31,13.53,47.59359,-54.27349
2021-11-04 15:04:01+00:00,248.0,14.73,248.0,17.62,13.53,47.59359,-54.27349
2021-11-04 15:14:00+00:00,264.0,12.96,271.0,15.41,13.68,47.59359,-54.27349
2021-11-04 15:24:00+00:00,264.0,13.43,269.0,18.64,13.68,47.59359,-54.27349
2021-11-04 15:34:00+00:00,272.0,14.19,276.0,20.39,13.68,47.59359,-54.27349
2021-11-04 15:44:00+00:00,272.0,13.05,280.0,15.31,13.68,47.59359,-54.27349
2021-11-04 15:54:00+00:00,270.0,13.42,283.0,15.27,13.68,47.59359,-54.27349
2021-11-04 16:04:00+00:00,276.0,13.66,282.0,15.65,13.68,47.59359,-54.27349
2021-11-04 16:14:01+00:00,276.0,13.45,274.0,14.99,13.68,47.59359,-54.27349
2021-11-04 16:24:01+00:00,288.0,13.09,286.0,15.27,13.68,47.59359,-54.27349
2021-11-04 16:34:01+00:00,284.0,14.01,284.0,15.44,13.68,47.59359,-54.27349
2021-11-04 16:44:01+00:00,273.0,13.13,277.0,15.0,13.68,47.59359,-54.27349
2021-11-04 16:54:01+00:00,281.0,14.29,282.0,15.54,13.68,47.59359,-54.27349
2021-11-04 17:04:01+00:00,276.0,13.69,275.0,15.17,13.68,47.59359,-54.27349
2021-11-04 17:14:01+00:00,293.0,13.25,292.0,14.83,13.84,47.59359,-54.27349
2021-11-04 17:24:01+00:00,298.0,12.41,283.0,16.79,13.84,47.59359,-54.27349
2021-11-04 17:34:01+00:00,291.0,13.46,292.0,15.51,13.84,47.59359,-54.27349
2021-11-04 17:44:01+00:00,284.0,13.35,282.0,14.62,13.84,47.59359,-54.27349
2021-11-04 17:54:01+00:00,296.0,8.54,298.0,10.96,13.84,47.59359,-54.27349
2021-11-04 18:04:01+00:00,299.0,10.87,293.0,15.12,13.84,47.59359,-54.27349
2021-11-04 18:14:01+00:00,306.0,9.15,303.0,12.69,14.0,47.59359,-54.27349
2021-11-04 18:24:01+00:00,313.0,9.99,298.0,16.66,14.0,47.59359,-54.27349
2021-11-04 18:34:01+00:00,302.0,9.63,295.0,14.23,14.0,47.59359,-54.27349
2021-11-04 18:44:01+00:00,305.0,9.87,299.0,14.8,14.0,47.59359,-54.27349
2021-11-04 18:54:01+00:00,302.0,9.79,289.0,13.97,14.0,47.59359,-54.27349
2021-11-04 19:04:01+00:00,319.0,11.38,308.0,14.41,14.0,47.59359,-54.27349
2021-11-04 19:14:01+00:00,312.0,10.87,302.0,15.41,13.92,47.59359,-54.27349
2021-11-04 19:24:01+00:00,322.0,10.41,330.0,12.65,13.92,47.59359,-54.27349
2021-11-04 19:34:01+00:00,319.0,12.91,311.0,17.67,13.92,47.59359,-54.27349
2021-11-04 19:44:01+00:00,324.0,10.38,325.0,11.57,13.92,47.59359,-54.27349
2021-11-04 19:54:01+00:00,320.0,7.75,305.0,9.49,13.92,47.59359,-54.27349
2021-11-04 20:04:01+00:00,324.0,8.98,334.0,11.14,13.92,47.59359,-54.27349
2021-11-04 20:14:01+00:00,318.0,8.63,319.0,9.91,13.6,47.59359,-54.27349
2021-11-04 20:24:01+00:00,318.0,7.66,326.0,9.08,13.6,47.59359,-54.27349
2021-11-04 20:34:01+00:00,312.0,8.11,318.0,9.6,13.6,47.59359,-54.27349
2021-11-04 20:44:01+00:00,319.0,5.61,318.0,7.36,13.6,47.59359,-54.27349
2021-11-04 20:54:01+00:00,317.0,6.58,325.0,8.44,13.6,47.59359,-54.27349
2021-11-04 21:04:01+00:00,308.0,6.25,307.0,7.61,13.6,47.59359,-54.27349
2021-11-04 21:14:01+00:00,302.0,7.23,307.0,8.71,12.81,47.59359,-54.27349
2021-11-04 21:24:01+00:00,306.0,6.92,309.0,7.73,12.81,47.59359,-54.27349
2021-11-04 21:34:01+00:00,293.0,7.37,302.0,9.12,12.81,47.59359,-54.27349
2021-11-04 21:44:01+00:00,295.0,7.56,277.0,12.17,12.81,47.59359,-54.27349
2021-11-04 21:54:01+00:00,286.0,6.74,291.0,7.72,12.81,47.59359,-54.27349
2021-11-04 22:04:01+00:00,295.0,5.61,292.0,7.06,12.81,47.59359,-54.27349
2021-11-04 22:14:01+00:00,282.0,5.46,283.0,6.32,12.65,47.59359,-54.27349
2021-11-04 22:24:01+00:00,285.0,5.98,281.0,7.13,12.65,47.59359,-54.27349
2021-11-04 22:34:01+00:00,282.0,5.25,286.0,6.27,12.65,47.59359,-54.27349
2021-11-04 22:44:01+00:00,272.0,5.28,270.0,6.15,12.65,47.59359,-54.27349
2021-11-04 22:54:01+00:00,271.0,5.04,273.0,6.2,12.65,47.59359,-54.27349
2021-11-04 23:04:01+00:00,272.0,4.58,278.0,5.61,12.65,47.59359,-54.27349
2021-11-04 23:14:00+00:00,283.0,5.77,291.0,6.96,12.57,47.59359,-54.27349
2021-11-04 23:24:00+00:00,277.0,5.74,285.0,7.28,12.57,47.59359,-54.27349
2021-11-04 23:34:00+00:00,289.0,7.1,286.0,8.01,12.57,47.59359,-54.27349
2021-11-04 23:44:00+00:00,291.0,6.03,294.0,6.86,12.57,47.59359,-54.27349
2021-11-04 23:54:00+00:00,293.0,5.42,296.0,6.64,12.57,47.59359,-54.27349
